Probability
0 0 0 0 0 0 3 3 6 23 48 71 71 77 71 68 65 55 55 48 45 55 48 45 52 52 48 61 58 65 61 68 68 48 45 39 32 32 35 35 39 39 35 26
0 0 0 0 3 3 3 3 13 39 48 52 55 52 55 55 58 45 39 32 32 32 42 32 35 35 32 35 42 52 52 52 45 45 55 42 39 29 23 23 29 26 23 23
0 0 0 0 0 0 6 10 10 23 39 42 39 45 48 48 39 35 35 35 16 26 23 26 19 16 29 32 35 35 42 45 42 39 39 39 42 35 16 19 26 19 16 16
0 0 0 0 0 0 6 6 10 16 23 32 35 19 39 32 29 26 29 29 26 23 19 23 23 26 35 32 35 45 39 29 39 39 32 26 19 10 6 16 13 13 13 16
0 0 0 0 0 3 13 10 6 6 13 19 19 10 26 23 23 23 23 26 26 23 23 23 29 26 26 29 23 23 26 26 26 26 29 32 10 6 6 10 10 6 10 10
0 0 0 0 3 6 10 10 6 6 3 3 6 3 6 16 16 16 19 23 23 23 10 23 13 13 16 10 10 6 16 16 16 13 13 13 6 10 3 6 6 6 3 10
0 0 0 0 0 6 10 6 0 0 0 0 3 0 3 6 6 13 13 13 10 6 10 6 0 3 6 10 6 6 6 10 10 10 10 10 6 6 3 3 3 3 0 0
0 0 0 0 0 0 0 0 0 0 0 0 0 0 3 3 3 0 3 10 6 6 10 3 3 3 0 0 0 6 6 6 10 10 6 3 3 0 0 0 0 0 0 0
0 0 0 0 0 0 0 0 0 0 0 0 0 0 3 10 3 0 0 3 3 3 0 3 3 0 3 3 6 6 6 6 6 6 3 0 0 0 0 0 0 0 0 0
0 0 0 0 0 0 0 0 0 0 0 0 0 0 0 6 3 0 0 0 0 0 3 0 0 0 0 3 6 6 6 6 3 0 0 0 0 0 0 0 0 0 0 0
0 0 0 0 0 0 0 0 0 0 0 0 0 0 0 6 6 3 3 0 0 0 0 0 0 0 0 0 3 0 0 0 0 0 0 0 0 0 0 0 0 0 0 0
0 0 0 0 0 0 0 0 0 0 0 0 0 0 0 0 0 3 0 0 0 0 0 0 0 0 3 0 0 0 0 0 0 0 0 0 0 0 0 0 0 0 0 0
0 0 0 0 0 0 0 0 0 0 0 0 0 0 0 0 0 3 0 0 0 0 0 0 0 0 0 0 0 0 0 0 0 0 0 0 0 0 0 0 0 0 0 0
0 0 0 0 0 0 0 0 0 0 0 0 0 0 0 0 0 3 0 0 0 0 0 0 0 0 0 0 0 0 0 0 0 0 0 0 0 0 0 0 0 0 0 0
0 0 0 0 0 0 0 0 0 0 0 0 0 0 0 0 0 0 0 0 0 0 0 0 0 0 0 0 0 0 0 0 0 0 0 0 0 0 0 0 0 0 0 0
13 3 0 0 0 0 0 0 0 0 0 0 0 0 0 0 0 0 0 0 0 0 0 0 0 0 0 0 0 0 0 0 0 0 0 0 0 0 0 0 0 0 0 0
3 13 0 0 0 0 0 0 0 0 0 0 0 0 0 0 0 0 0 0 0 0 0 0 0 0 0 0 0 0 0 0 0 0 0 0 0 0 0 0 0 0 0 0
10 16 3 0 0 0 0 0 0 0 0 0 0 0 0 0 0 0 0 0 0 0 0 0 0 0 0 0 0 0 0 0 0 0 0 0 0 0 0 0 0 0 0 0
16 23 0 0 0 0 0 0 0 0 0 0 0 0 0 0 0 0 0 0 0 0 0 0 0 0 0 0 0 0 0 0 0 0 0 0 0 0 0 0 0 0 0 0
19 35 6 0 0 0 0 0 0 0 0 0 0 0 0 0 0 0 0 0 0 0 0 0 0 0 0 0 0 0 0 0 0 0 0 0 0 0 0 0 0 0 0 0
10 19 3 0 0 0 0 0 0 0 0 0 0 0 0 0 0 0 0 0 0 0 0 0 0 0 0 0 0 0 0 0 0 0 0 0 0 0 0 0 0 0 0 0
3 3 3 3 0 0 0 0 0 0 3 0 0 0 0 0 0 0 0 0 0 0 0 0 0 0 0 0 0 0 0 0 0 0 0 0 0 0 0 0 0 0 0 0
3 3 3 3 0 16 0 0 0 3 0 0 0 0 0 0 0 0 0 0 0 0 0 0 0 0 0 0 0 0 0 0 0 0 0 0 0 0 0 0 0 0 0 0
6 10 10 13 6 13 0 0 0 0 0 0 0 0 0 0 0 0 0 0 0 0 0 0 0 0 0 0 0 0 0 0 0 0 0 0 0 0 0 0 0 0 0 0
6 6 6 10 10 3 0 0 0 0 0 0 0 0 0 0 0 0 0 0 0 0 0 0 0 0 0 0 0 0 0 0 0 0 0 0 0 0 0 0 0 0 0 0
0 0 0 3 3 0 3 3 0 0 0 0 0 0 0 0 0 0 0 0 0 0 0 0 0 0 0 0 0 0 0 0 0 0 0 0 0 0 0 0 0 0 0 0
Height
5875 5874 5873 5872 5870 5870 5869 5869 5868 5867 5867 5867 5866 5866 5867 5866 5866 5866 5866 5865 5864 5864 5863 5862 5861 5860 5858 5857 5856 5854 5853 5851 5849 5847 5845 5843 5841 5839 5837 5835 5833 5832 5830 5829
5875 5874 5873 5871 5869 5869 5868 5868 5867 5867 5866 5866 5865 5865 5865 5864 5864 5864 5863 5862 5860 5859 5858 5857 5856 5855 5854 5852 5851 5849 5848 5846 5844 5842 5840 5837 5835 5833 5831 5829 5827 5825 5823 5822
5874 5874 5871 5870 5869 5868 5867 5867 5867 5866 5865 5865 5864 5864 5863 5863 5862 5861 5859 5858 5856 5855 5854 5853 5852 5851 5850 5848 5846 5844 5843 5840 5839 5837 5834 5832 5829 5826 5824 5822 5820 5818 5816 5814
5873 5872 5871 5870 5868 5868 5867 5866 5866 5865 5864 5864 5864 5863 5862 5860 5859 5858 5856 5854 5853 5852 5851 5849 5848 5847 5846 5844 5842 5840 5837 5835 5833 5831 5828 5825 5822 5820 5817 5815 5812 5810 5808 5806
5872 5871 5870 5869 5868 5867 5866 5865 5864 5863 5863 5863 5863 5863 5861 5858 5857 5855 5854 5852 5851 5850 5849 5847 5846 5845 5843 5841 5839 5836 5833 5831 5828 5825 5822 5819 5816 5813 5810 5808 5805 5802 5800 5798
5870 5869 5868 5867 5866 5865 5865 5864 5863 5862 5862 5863 5861 5861 5860 5857 5856 5854 5853 5851 5850 5849 5847 5846 5844 5843 5841 5838 5835 5832 5829 5826 5823 5820 5817 5813 5810 5807 5803 5800 5797 5794 5791 5789
5869 5868 5867 5866 5865 5864 5864 5864 5864 5863 5863 5862 5859 5859 5858 5856 5855 5853 5852 5851 5849 5848 5846 5844 5842 5840 5837 5834 5831 5828 5825 5821 5818 5814 5811 5807 5803 5800 5796 5793 5790 5786 5783 5780
5869 5868 5866 5864 5864 5863 5862 5863 5864 5864 5863 5861 5858 5857 5857 5855 5853 5852 5851 5849 5848 5846 5844 5842 5840 5837 5834 5831 5827 5824 5820 5816 5812 5808 5805 5801 5797 5793 5790 5786 5782 5778 5775 5771
5867 5866 5864 5863 5862 5862 5861 5861 5861 5861 5860 5860 5858 5856 5855 5853 5852 5851 5850 5848 5846 5844 5842 5840 5837 5834 5831 5827 5823 5819 5815 5811 5807 5803 5799 5795 5791 5787 5783 5779 5775 5770 5766 5763
5864 5864 5862 5861 5861 5860 5860 5859 5859 5860 5860 5861 5858 5856 5855 5853 5851 5850 5848 5846 5845 5842 5840 5837 5834 5831 5827 5823 5819 5815 5811 5807 5802 5798 5794 5789 5785 5781 5776 5771 5766 5762 5757 5753
5862 5862 5861 5860 5859 5859 5859 5859 5858 5858 5858 5860 5859 5859 5854 5852 5850 5848 5847 5845 5843 5840 5837 5834 5831 5827 5823 5819 5815 5811 5806 5802 5798 5793 5788 5783 5778 5773 5768 5763 5758 5753 5748 5744
5859 5860 5859 5858 5857 5857 5857 5857 5857 5858 5857 5856 5857 5858 5852 5850 5848 5846 5844 5842 5840 5838 5835 5832 5828 5824 5820 5815 5811 5806 5802 5797 5792 5787 5782 5777 5771 5766 5760 5755 5749 5744 5739 5734
5857 5857 5858 5858 5858 5856 5855 5854 5854 5855 5855 5854 5855 5855 5850 5848 5846 5844 5842 5840 5838 5835 5832 5829 5825 5820 5816 5811 5807 5802 5797 5792 5787 5781 5776 5770 5764 5758 5753 5747 5741 5735 5730 5724
5854 5854 5856 5857 5855 5853 5853 5852 5852 5852 5853 5853 5852 5850 5848 5845 5844 5842 5840 5837 5835 5832 5829 5825 5821 5817 5812 5807 5802 5797 5792 5787 5781 5776 5770 5764 5758 5752 5746 5739 5733 5727 5721 5716
5851 5852 5851 5851 5851 5850 5850 5850 5850 5850 5850 5850 5849 5847 5845 5843 5841 5839 5837 5834 5832 5829 5825 5822 5817 5813 5808 5803 5798 5793 5787 5782 5776 5770 5764 5758 5752 5746 5739 5733 5726 5720 5714 5707
5848 5848 5848 5848 5848 5847 5847 5847 5847 5847 5846 5846 5845 5844 5842 5840 5838 5836 5834 5831 5829 5825 5822 5818 5814 5809 5804 5799 5794 5788 5783 5777 5771 5765 5759 5753 5746 5740 5733 5726 5719 5712 5706 5699
5845 5845 5846 5846 5845 5845 5845 5845 5844 5844 5843 5843 5842 5841 5838 5837 5835 5833 5830 5828 5825 5822 5818 5814 5810 5805 5800 5795 5790 5784 5779 5773 5766 5760 5754 5747 5741 5734 5727 5720 5712 5705 5698 5692
5842 5842 5842 5843 5844 5843 5844 5841 5841 5841 5840 5839 5838 5837 5835 5833 5831 5829 5827 5824 5822 5818 5815 5810 5806 5801 5796 5791 5786 5780 5774 5768 5762 5755 5749 5742 5735 5728 5721 5713 5706 5698 5691 5684
5838 5839 5839 5840 5841 5840 5840 5838 5838 5837 5837 5836 5834 5833 5831 5829 5828 5826 5823 5821 5818 5814 5811 5806 5802 5797 5792 5787 5781 5776 5770 5763 5757 5751 5744 5737 5730 5722 5715 5707 5699 5692 5684 5677
5834 5835 5836 5836 5837 5838 5837 5835 5834 5835 5833 5832 5830 5829 5828 5826 5824 5823 5820 5817 5814 5810 5807 5802 5798 5793 5788 5783 5777 5771 5765 5759 5752 5746 5739 5732 5724 5717 5709 5701 5693 5685 5678 5670
5830 5831 5831 5832 5833 5834 5832 5831 5831 5832 5831 5828 5826 5825 5824 5822 5821 5819 5815 5812 5809 5806 5802 5798 5794 5789 5784 5778 5773 5767 5761 5754 5748 5741 5734 5726 5719 5711 5703 5695 5687 5680 5672 5664
5826 5827 5827 5828 5829 5831 5827 5827 5827 5827 5825 5824 5822 5821 5819 5818 5816 5814 5811 5808 5805 5802 5798 5794 5789 5785 5780 5774 5768 5763 5756 5750 5743 5736 5729 5721 5713 5706 5698 5690 5682 5674 5666 5658
5821 5823 5823 5824 5826 5824 5823 5822 5822 5821 5820 5819 5818 5816 5815 5813 5811 5809 5806 5803 5800 5797 5793 5789 5785 5780 5775 5770 5764 5758 5752 5745 5738 5731 5724 5716 5708 5700 5692 5684 5676 5668 5660 5653
5816 5816 5817 5818 5818 5818 5818 5817 5817 5816 5815 5814 5813 5811 5810 5808 5806 5804 5801 5798 5795 5792 5788 5784 5780 5775 5770 5765 5759 5753 5747 5740 5733 5726 5718 5710 5702 5695 5687 5679 5671 5663 5655 5647
5810 5811 5812 5812 5813 5813 5812 5812 5811 5810 5810 5809 5807 5806 5804 5803 5801 5798 5796 5793 5790 5787 5783 5779 5774 5770 5765 5760 5754 5748 5741 5735 5728 5720 5713 5705 5697 5689 5681 5674 5666 5658 5650 5643
5804 5805 5806 5807 5807 5807 5807 5806 5806 5805 5804 5803 5802 5800 5799 5797 5795 5792 5790 5787 5784 5781 5777 5773 5769 5764 5759 5754 5748 5742 5736 5729 5722 5715 5707 5699 5692 5684 5676 5669 5661 5653 5646 5638
Wind_Speed
12 11 10 9 8 7 6 5 6 7 6 7 7 7 8 9 11 13 15 16 17 18 19 20 20 19 19 18 19 19 20 20 21 23 24 25 24 24 25 26 26 26 27 27
10 9 9 8 7 6 5 6 7 7 6 6 7 8 8 8 10 11 13 15 16 17 17 18 17 16 17 18 18 18 19 21 22 23 23 23 24 25 26 26 26 27 27 28
8 7 7 7 7 7 5 6 5 6 7 7 8 8 9 9 11 11 13 14 15 15 15 14 14 16 16 16 17 18 20 20 21 22 23 24 25 26 26 26 27 27 28 29
7 6 6 6 6 6 6 6 5 6 6 7 8 10 10 11 12 12 12 12 11 12 12 12 13 14 15 16 18 19 20 21 22 23 24 25 26 26 26 27 27 28 29 29
7 7 6 6 6 7 7 6 6 6 7 7 8 9 12 11 11 10 10 10 10 10 11 12 13 14 16 17 19 21 22 23 23 23 24 25 26 27 27 28 28 29 30 30
7 7 7 7 7 8 7 7 6 7 6 7 8 8 10 10 9 8 9 10 10 11 11 12 13 15 17 19 21 21 22 22 23 24 24 25 26 27 28 28 29 30 31 31
8 8 8 8 8 7 7 6 6 7 7 8 8 7 8 8 8 8 9 10 10 11 12 14 15 17 19 20 21 21 22 23 24 25 26 26 27 28 28 29 30 31 32 33
7 8 8 7 7 7 6 6 4 4 6 8 8 7 7 7 7 8 10 10 11 12 14 15 17 19 20 21 22 22 23 24 25 25 26 27 27 28 29 30 31 31 32 33
7 8 8 8 7 6 6 5 5 4 5 6 7 7 7 7 8 9 10 11 12 14 15 16 18 20 21 21 22 23 23 24 25 25 26 26 27 28 30 30 31 32 32 33
7 8 9 8 7 6 5 5 4 2 2 4 7 7 8 8 9 10 11 12 13 14 16 17 19 20 21 22 22 23 23 24 25 25 26 27 27 29 30 31 31 32 32 33
8 8 9 8 6 6 5 5 4 3 3 2 5 8 8 9 10 10 11 12 14 15 16 18 19 20 21 22 22 23 23 24 24 25 26 27 28 29 30 30 31 31 32 33
7 7 7 8 7 6 6 5 5 5 5 4 5 10 9 10 10 11 12 13 14 15 17 18 19 20 22 22 23 23 23 24 25 26 27 29 30 30 31 31 31 32 32 32
7 6 5 7 9 8 7 7 7 7 6 6 6 11 10 11 11 11 12 13 14 15 17 19 20 21 22 23 23 24 24 25 27 28 29 30 31 31 31 32 33 33 33 32
8 7 6 7 10 10 8 8 8 8 7 8 9 12 11 11 11 12 12 13 14 16 17 19 20 21 22 23 24 24 25 27 28 29 30 31 31 32 32 33 34 33 33 32
9 8 8 9 9 9 9 9 9 9 8 9 10 11 11 11 11 12 13 14 15 16 18 19 21 22 23 24 25 26 27 28 29 29 30 31 32 32 33 34 34 34 33 32
10 9 9 9 9 9 9 9 9 9 9 10 10 11 11 12 12 13 13 14 16 17 19 20 21 23 24 25 25 27 28 29 30 30 31 32 32 33 34 34 35 34 33 33
10 9 9 8 9 9 9 10 10 10 10 10 11 12 12 12 13 13 14 15 16 18 19 21 22 23 24 25 26 28 28 29 30 31 32 32 33 34 35 36 35 35 34 34
10 10 9 8 9 8 10 10 10 10 11 11 12 12 12 12 13 13 14 15 16 18 20 21 22 23 25 26 27 28 29 30 31 32 33 34 35 36 37 36 36 36 35 35
12 11 10 10 9 10 11 10 10 11 11 11 12 12 12 12 13 13 14 15 17 19 20 21 23 24 25 27 28 29 30 30 31 32 33 35 36 36 37 37 37 37 36 35
13 13 12 11 11 10 13 11 11 11 11 12 12 12 12 13 13 14 15 16 18 19 20 22 23 24 26 27 28 29 30 31 32 33 35 35 36 37 37 37 37 36 36 35
14 14 13 12 11 12 14 12 12 11 13 13 13 13 13 13 14 15 16 17 18 20 21 22 23 25 27 28 29 30 30 32 33 34 35 36 37 37 37 37 37 36 36 35
14 14 14 13 12 14 15 14 13 14 14 14 14 14 14 14 15 16 17 18 19 20 21 23 24 26 27 29 30 30 31 32 34 35 36 37 38 38 37 37 37 37 36 35
16 16 15 14 15 16 15 15 15 15 15 15 15 15 15 16 16 17 18 19 20 21 23 24 25 26 28 29 30 31 32 33 35 36 37 38 39 38 38 38 38 37 36 35
17 17 17 16 17 17 17 17 16 16 16 16 16 17 17 17 18 18 20 21 21 22 24 25 26 27 28 29 31 32 33 35 36 37 38 39 39 39 39 38 38 37 36 35
18 18 18 17 17 17 18 18 18 18 18 18 18 18 18 19 19 20 21 22 23 24 25 26 26 28 29 31 32 34 36 37 37 38 39 39 40 39 39 39 38 37 36 35
19 20 19 19 19 19 19 20 20 20 20 20 20 20 20 20 21 22 23 24 25 25 27 27 28 29 31 32 33 35 37 38 39 40 40 40 40 40 39 38 38 37 36 35
Wind_Direction
347 349 349 340 341 333 322 311 300 301 299 298 294 286 276 270 271 271 271 275 276 276 280 281 282 284 285 287 287 287 290 292 291 291 293 293 294 292 291 289 289 288 286 285
344 346 345 342 343 341 327 315 307 309 297 287 287 285 285 283 282 284 285 287 286 285 288 287 285 288 292 293 293 295 297 296 295 296 297 297 297 296 295 293 290 288 287 285
333 330 335 339 342 348 342 328 312 304 300 291 292 293 296 298 298 295 296 296 292 292 296 295 291 292 297 301 301 300 301 298 301 301 301 300 299 297 296 294 292 290 287 285
322 321 325 331 331 332 328 320 313 307 304 296 292 297 300 303 303 301 303 307 307 306 311 310 309 309 309 309 310 310 310 308 305 303 302 302 301 299 298 296 294 292 290 287
313 313 316 317 316 317 314 311 312 311 308 301 301 298 303 311 314 316 322 324 322 320 320 321 319 318 316 316 315 314 312 310 308 307 306 305 304 302 300 298 296 294 292 290
308 309 309 307 308 308 309 310 316 324 321 306 304 304 305 316 320 325 331 332 330 329 325 323 321 320 319 318 317 315 314 312 310 309 308 307 306 304 302 301 299 297 295 292
312 307 304 303 306 309 309 320 336 337 332 316 309 305 306 318 322 325 331 332 329 325 324 324 321 321 321 320 319 317 315 313 311 311 311 310 308 306 304 303 301 298 295 293
299 300 301 300 301 304 309 313 305 303 309 313 317 313 314 317 319 324 328 330 329 326 325 324 323 322 322 321 319 318 317 316 315 314 313 312 311 309 307 304 302 299 296 294
286 286 292 293 293 298 302 299 297 310 320 327 323 322 318 318 320 325 329 330 328 325 324 323 323 323 323 322 321 320 320 319 318 317 316 314 312 310 308 306 304 300 298 295
284 286 289 292 291 289 294 299 299 303 312 324 323 325 321 323 325 327 327 327 326 325 323 322 323 324 325 325 324 322 322 322 321 319 317 316 314 313 311 309 306 303 300 298
288 293 292 290 287 285 285 286 282 284 283 280 303 304 314 317 320 323 324 324 324 324 323 324 325 327 328 328 326 325 325 324 324 322 321 320 318 317 316 313 310 307 303 300
290 290 284 284 282 276 272 270 273 280 288 291 301 299 312 314 316 318 321 322 322 323 325 327 328 329 330 330 330 330 330 329 328 328 327 326 324 322 321 319 316 312 309 305
287 288 296 298 290 278 272 268 270 273 280 288 298 295 309 313 315 316 319 321 322 324 327 329 331 332 332 333 333 334 334 333 332 332 331 330 328 327 325 323 321 318 314 310
279 277 258 252 259 270 272 272 271 273 278 285 290 295 306 312 313 315 317 319 322 325 329 332 333 333 334 335 336 336 336 335 335 334 333 332 331 330 328 326 324 322 319 315
272 273 269 265 265 267 269 272 271 271 275 281 292 300 305 310 312 313 315 318 321 326 329 331 333 335 336 338 339 339 338 337 337 336 335 334 333 331 330 328 326 324 321 318
264 265 266 269 267 266 266 270 273 275 279 285 292 299 305 308 310 311 313 316 320 325 328 330 333 336 338 339 340 340 339 338 338 337 337 336 335 333 332 330 327 325 323 321
260 260 260 264 266 268 274 272 273 277 281 287 293 299 305 306 308 310 313 316 320 324 327 330 334 337 338 339 340 340 339 339 339 338 337 337 336 335 334 332 330 327 326 323
255 256 255 256 263 269 265 271 273 278 283 287 292 299 303 305 308 310 313 316 321 326 329 332 335 338 339 340 340 340 339 339 339 338 338 337 337 337 336 334 332 329 328 326
252 252 254 253 263 269 273 276 278 282 283 286 292 298 302 304 307 309 312 317 323 326 329 332 336 338 340 340 340 340 340 340 339 339 339 338 338 337 337 335 334 331 330 328
253 253 253 253 255 260 267 276 281 284 283 286 291 295 301 303 306 309 313 319 323 326 329 332 335 338 339 340 340 341 341 341 340 340 340 339 339 338 337 337 335 334 332 330
253 251 249 252 257 259 265 274 280 280 280 286 289 293 297 300 303 307 312 317 321 324 328 331 334 337 338 339 340 340 341 341 341 341 341 340 340 339 338 337 336 336 334 333
250 250 249 253 258 256 263 271 275 276 279 284 289 292 295 298 302 306 310 315 319 323 326 329 333 335 336 338 338 338 339 340 340 341 341 341 340 339 339 338 337 337 336 335
249 247 247 251 254 257 263 269 273 276 279 283 288 291 294 298 302 306 309 313 317 320 323 327 330 333 335 336 337 337 339 340 340 340 340 340 340 340 339 338 338 338 337 336
250 248 251 254 257 261 266 270 273 278 282 285 287 290 293 297 302 305 308 311 314 318 321 324 327 331 332 333 335 336 338 339 340 340 340 340 340 340 339 339 339 339 338 338
251 250 251 254 256 260 266 272 276 280 283 285 287 289 293 297 301 304 307 309 312 315 317 320 323 326 329 331 333 335 337 338 338 338 339 339 339 339 339 339 339 339 339 339
251 251 254 257 261 265 269 273 277 279 282 284 286 290 293 296 300 302 305 308 310 313 315 317 319 322 325 328 331 334 336 336 336 337 338 338 338 338 338 339 339 339 339 339